Location: Cahas Mountain Overlook
(37.0833°N, 80.1000°W)
Time: 13:47:25
(UTC-05:00)

Courier 1B - Pass Details

Date: 12 December 2023
Orbit: 962 x 1209 km, 28.3° (Epoch: 29 February)

Event Time Altitude Azimuth Distance (km) Brightness Sun altitude
Rises 08:50:02 0° 257° (WSW) 3,942 10.3 13.0°
Reaches altitude 10° 08:53:03 10° 251° (WSW) 2,944 9.8 13.5°
Maximum altitude 08:59:40 41° 184° (S) 1,482 9.2 14.4°
Drops below altitude 10° 09:05:56 10° 116° (ESE) 2,778 11.6 15.3°
Sets 09:08:41 0° 109° (ESE) 3,698 11.7 15.7°
